This demonstration page uses our WeatherBlox Daily Observations layout. Learn more.

Left ArrowRight Arrow

38.80484, -77.04692

Hourly Observations for August 30, 2021

Temp ( °F °C ) Dew Point ( °F °C ) Humidity (%) Winds ( mph kmh ) Pressure ( in mb ) Visibility ( mi km ) Precip ( " mm )
12:52 am 00:52 Mostly Clear 77 25 73 22.8 88 88 S 3 6 30.04 1017 9 14 N/A
1:52 am 01:52 Partly Cloudy 77 25 72 22.2 85 85 WSW 3 6 30.04 1017 8 13 N/A
2:52 am 02:52 Mostly Clear 77 25 72 22.2 85 85 ESE 3 6 30.01 1016 9 14 N/A
3:25 am 03:25 Mostly Cloudy 77 25 72 22.2 85 85 N N/A 30.02 1017 8 13 N/A
3:52 am 03:52 Partly Cloudy 76 24.4 72 22.2 88 88 N N/A 30.01 1016 9 14 N/A
4:30 am 04:30 Mostly Cloudy 76 24.4 72 22.2 88 88 WSW 3 6 30.01 1016 8 13 N/A
4:52 am 04:52 Cloudy 76 24.4 72 22.2 88 88 WSW 3 6 30.00 1016 8 13 N/A
5:26 am 05:26 Mostly Cloudy 75 23.9 71 21.7 88 88 SW 5 7 29.99 1016 8 13 N/A
5:52 am 05:52 Mostly Cloudy 75 23.9 71 21.7 88 88 S 3 6 29.99 1016 8 13 N/A
6:29 am 06:29 Cloudy 76 24.4 71 21.7 85 85 WSW 3 6 29.99 1016 8 13 N/A
6:52 am 06:52 Cloudy with Mist and Fog 76 24.4 72 22.2 88 88 WSW 5 7 30.00 1016 6 10 N/A
7:08 am 07:08 Cloudy with Mist and Fog 76 24.4 72 22.2 88 88 W 3 6 30.00 1016 6 10 N/A
7:24 am 07:24 Cloudy with Mist and Fog 76 24.4 72 22.2 88 88 N N/A 30.00 1016 6 10 N/A
7:46 am 07:46 Cloudy with Mist and Fog 75 24 72 22 89 89 SW 3 6 30.00 1016 6 10 N/A
7:52 am 07:52 Cloudy with Mist and Fog 76 24.4 72 22.2 88 88 SSW 3 6 29.99 1016 6 10 N/A
8:52 am 08:52 Mostly Cloudy 79 26.1 74 23.3 85 85 VRB 3 6 29.98 1015 8 13 N/A
9:06 am 09:06 Mostly Cloudy 80 26.7 73 22.8 79 79 S 5 7 29.98 1015 9 14 N/A
9:52 am 09:52 Mostly Sunny 81 27.2 74 23.3 79 79 S 8 13 29.97 1015 10 16 N/A
10:52 am 10:52 Mostly Sunny 84 28.9 75 23.9 74 74 S 8 13 29.96 1014 10 16 N/A
11:52 am 11:52 Partly Cloudy 85 29.4 75 23.9 72 72 S 10 17 29.93 1014 10 16 N/A
12:52 pm 12:52 Partly Cloudy 86 30 74 23.3 67 67 S 9 15 29.92 1013 10 16 N/A
1:52 pm 13:52 Partly Cloudy 89 31.7 73 22.8 59 59 WSW 9 15 29.89 1012 10 16 N/A
2:52 pm 14:52 Mostly Cloudy 93 33.9 71 21.7 49 49 undefined N/A 29.85 1011 10 16 N/A
3:52 pm 15:52 Mostly Cloudy 91 32.8 69 20.6 49 49 VRB 5 7 29.83 1010 9 14 N/A
4:52 pm 16:52 Mostly Cloudy 90 32.2 69 20.6 50 50 W 9 15 29.83 1010 10 16 N/A
5:52 pm 17:52 Mostly Cloudy 83 28.3 68 20 61 61 W 16 26 29.85 1011 10 16 0.00 0.00
6:52 pm 18:52 Mostly Cloudy 80 26.7 68 20 67 67 S 8 13 29.83 1010 10 16 N/A
7:52 pm 19:52 Mostly Cloudy 79 26.1 67 19.4 67 67 WSW 5 7 29.84 1011 10 16 N/A
8:52 pm 20:52 Mostly Cloudy 79 26.1 68 20 69 69 N 6 9 29.86 1011 10 16 N/A
9:52 pm 21:52 Mostly Cloudy 78 25.6 68 20 71 71 SSW 6 9 29.85 1011 10 16 N/A
10:52 pm 22:52 Partly Cloudy 77 25 69 20.6 77 77 SW 5 7 29.85 1011 10 16 N/A
11:52 pm 23:52 Partly Cloudy 76 24.4 69 20.6 79 79 SSW 7 11 29.86 1011 10 16 N/A

Powered by AerisWeather